Regional Weather Roundup
Issued by NWS

Home | Current Version | Previous Version | Graphics & Text | Print | Product List | Glossary On
Versions: 1 2 3 4 5 6 7 8 9 10 11 12 13 14 15 16 17 18 19 20 21 22 23 24 25 26 27 28 29 30 31 32 33 34 35 36 37 38 39 40 41 42 43 44 45 46 47 48 49 50
689
ASUS45 KCYS 241010
RWRWY

WYOMING REGIONAL WEATHER ROUNDUP
NATIONAL WEATHER SERVICE CHEYENNE WY
400 AM MDT SUN JUL 24 2016

NOTE:  "FAIR" INDICATES FEW OR NO CLOUDS BELOW 12,000 FEET
WITH NO SIGNIFICANT WEATHER AND/OR OBSTRUCTIONS TO VISIBILITY.

WYZ001-241100-
YELLOWSTONE NATIONAL PARK

CITY           SKY/WX    TMP DP  RH WIND       PRES   REMARKS
LK YELLOWSTONE   N/A     37  33  85 CALM      30.34F
W YELLOWSTONE  NOT AVBL

$$
WYZ002>013-054>058-071-098>099-241100-
NORTHERN WYOMING

CITY           SKY/WX    TMP DP  RH WIND       PRES   REMARKS
JACKSON        FAIR      39  28  65 N5        30.26S
CODY           FAIR      57  37  47 S6        30.18S
GREYBULL       FAIR      67  40  37 W6        30.08R
WORLAND        FAIR      61  39  44 S9        30.11S
SHERIDAN       MOCLDY    57  43  59 CALM      30.12F
BUFFALO        FAIR      59  37  44 SW7       30.19F
GILLETTE       FAIR      51  41  68 N6        30.13F
HULETT         CLOUDY    64  43  45 E7        30.15S
NEWCASTLE      FAIR      64  34  32 CALM      30.12F

$$
WYZ014>020-022>026-101>103-241100-
CENTRAL WYOMING

CITY           SKY/WX    TMP DP  RH WIND       PRES   REMARKS
BIG PINEY      FAIR      42  27  55 N10       30.28F
PINEDALE       FAIR      37  30  75 NW3       30.29S
DUBOIS         CLOUDY    45  21  39 NW10      30.29R HAZE
LANDER         FAIR      61  35  37 SW8       30.18F
RIVERTON       FAIR      60  33  36 NW5       30.18F
CASPER         FAIR      59  35  40 CALM      30.16R
DOUGLAS          N/A    N/A N/A N/A MISG      30.11S

$$
WYZ021-027>030-104>119-241100-
SOUTHERN WYOMING

CITY           SKY/WX    TMP DP  RH WIND       PRES   REMARKS
EVANSTON       FAIR      56  25  30 CALM      30.28S
KEMMERER         N/A     46  32  57 N12       30.30S
FORT BRIDGER   FAIR      55  24  29 NW6       30.30S
ROCK SPRINGS   FAIR      54  21  27 NW3       30.25S
DIXON          FAIR      51  42  69 E3        30.26F
RAWLINS        FAIR      62  18  18 SW13      30.22S
SARATOGA       FAIR      55  34  44 S9        30.26S
LARAMIE        FAIR      55  46  71 S9        30.25F
CHEYENNE       FAIR      66  48  52 SW7       30.18F
TORRINGTON     FAIR      66  52  60 E10       30.04F
PINE BLUFFS    FAIR      72  48  43 S10       30.10F

$$




USA.gov is the U.S. government's official web portal to all federal, state and local government web resources and services.